Météo par heure à Kitakyushu

Ce jour, 6 Mars, Samedi

Heure Température Précipitation Vent Pression Humidité
00:00 +12°C° 0 mm 2 m/s 763 mmHg 93%
01:00 +12°C° 0 mm 2 m/s 762 mmHg 94%
02:00 +12°C° 0 mm 2 m/s 762 mmHg 94%
03:00 +12°C° 0 mm 2 m/s 762 mmHg 95%
04:00 +12°C° 0 mm 2 m/s 763 mmHg 95%
05:00 +12°C° 0 mm 2 m/s 763 mmHg 95%
06:00 +11°C° 0 mm 3 m/s 763 mmHg 95%
07:00 +12°C° 0 mm 4 m/s 764 mmHg 89%
08:00 +13°C° 0 mm 5 m/s 764 mmHg 83%
09:00 +14°C° 0 mm 6 m/s 764 mmHg 77%
10:00 +14°C° 0 mm 6 m/s 765 mmHg 73%
11:00 +15°C° 0 mm 7 m/s 765 mmHg 68%
12:00 +15°C° 0 mm 8 m/s 765 mmHg 63%
13:00 +13°C° 0 mm 8 m/s 765 mmHg 64%
14:00 +12°C° 0 mm 9 m/s 765 mmHg 65%
15:00 +11°C° 0 mm 9 m/s 765 mmHg 66%
16:00 +10°C° 0 mm 9 m/s 766 mmHg 67%
17:00 +10°C° 0 mm 8 m/s 766 mmHg 68%
18:00 +9°C° 0 mm 8 m/s 767 mmHg 69%
19:00 +7°C° 0 mm 8 m/s 767 mmHg 71%
20:00 +8°C° 0 mm 7 m/s 767 mmHg 72%
21:00 +8°C° 0 mm 7 m/s 768 mmHg 73%
22:00 +7°C° 0 mm 6 m/s 768 mmHg 73%
23:00 +7°C° 0 mm 6 m/s 768 mmHg 73%

Demain, 7 Mars, Dimanche

Heure Température Précipitation Vent Pression Humidité
00:00 +6°C° 0 mm 5 m/s 768 mmHg 73%
01:00 +6°C° 0 mm 5 m/s 768 mmHg 73%
02:00 +6°C° 0 mm 5 m/s 768 mmHg 72%
03:00 +5°C° 0 mm 5 m/s 767 mmHg 72%
04:00 +5°C° 0 mm 5 m/s 768 mmHg 72%
05:00 +5°C° 0 mm 5 m/s 768 mmHg 73%
06:00 +5°C° 0 mm 5 m/s 768 mmHg 73%
07:00 +6°C° 0 mm 4 m/s 768 mmHg 69%
08:00 +6°C° 0 mm 4 m/s 768 mmHg 65%
09:00 +8°C° 0 mm 3 m/s 768 mmHg 60%
10:00 +9°C° 0 mm 3 m/s 768 mmHg 56%
11:00 +11°C° 0 mm 3 m/s 768 mmHg 52%
12:00 +12°C° 0 mm 3 m/s 768 mmHg 48%
13:00 +12°C° 0 mm 3 m/s 767 mmHg 48%
14:00 +13°C° 0 mm 3 m/s 767 mmHg 48%
15:00 +13°C° 0 mm 4 m/s 766 mmHg 49%
16:00 +12°C° 0 mm 4 m/s 767 mmHg 53%
17:00 +11°C° 0 mm 3 m/s 767 mmHg 58%
18:00 +10°C° 0 mm 3 m/s 767 mmHg 62%
19:00 +10°C° 0 mm 3 m/s 767 mmHg 65%
20:00 +10°C° 0 mm 3 m/s 767 mmHg 68%
21:00 +9°C° 0 mm 3 m/s 767 mmHg 70%
22:00 +9°C° 0 mm 2 m/s 767 mmHg 72%
23:00 +9°C° 0 mm 2 m/s 767 mmHg 74%

Après-demain, 8 Mars, Lundi

Heure Température Précipitation Vent Pression Humidité
00:00 +8°C° 0 mm 2 m/s 767 mmHg 76%
01:00 +8°C° 0 mm 2 m/s 767 mmHg 78%
02:00 +8°C° 0 mm 2 m/s 767 mmHg 80%
03:00 +8°C° 0 mm 2 m/s 766 mmHg 82%
04:00 +8°C° 0 mm 2 m/s 766 mmHg 83%
05:00 +7°C° 0 mm 2 m/s 766 mmHg 83%
06:00 +7°C° 0 mm 2 m/s 766 mmHg 84%
07:00 +8°C° 0 mm 2 m/s 767 mmHg 78%
08:00 +9°C° 0 mm 2 m/s 767 mmHg 71%
09:00 +12°C° 0 mm 2 m/s 767 mmHg 65%
10:00 +12°C° 0 mm 3 m/s 767 mmHg 57%
11:00 +13°C° 0 mm 3 m/s 767 mmHg 50%
12:00 +16°C° 0 mm 3 m/s 767 mmHg 42%
13:00 +16°C° 0 mm 3 m/s 766 mmHg 43%
14:00 +15°C° 0 mm 4 m/s 766 mmHg 43%
15:00 +15°C° 0 mm 4 m/s 765 mmHg 43%
16:00 +14°C° 0 mm 4 m/s 765 mmHg 50%
17:00 +13°C° 0 mm 4 m/s 765 mmHg 56%
18:00 +12°C° 0 mm 4 m/s 765 mmHg 63%
19:00 +11°C° 0 mm 4 m/s 766 mmHg 65%
20:00 +10°C° 0 mm 3 m/s 766 mmHg 68%
21:00 +9°C° 0 mm 3 m/s 767 mmHg 71%
22:00 +9°C° 0 mm 3 m/s 767 mmHg 72%
23:00 +9°C° 0 mm 3 m/s 766 mmHg 74%

9 Mars, Mardi

Heure Température Précipitation Vent Pression Humidité
00:00 +8°C° 0 mm 2 m/s 766 mmHg 75%
01:00 +8°C° 0 mm 2 m/s 766 mmHg 75%
02:00 +8°C° 0 mm 2 m/s 766 mmHg 75%
03:00 +9°C° 0 mm 1 m/s 766 mmHg 74%
04:00 +8°C° 0 mm 2 m/s 766 mmHg 75%
05:00 +8°C° 0 mm 2 m/s 766 mmHg 76%
06:00 +8°C° 0 mm 2 m/s 765 mmHg 77%
07:00 +9°C° 0 mm 2 m/s 766 mmHg 73%
08:00 +10°C° 0 mm 2 m/s 766 mmHg 69%
09:00 +12°C° 0 mm 2 m/s 766 mmHg 65%
10:00 +14°C° 0 mm 2 m/s 766 mmHg 60%
11:00 +15°C° 0 mm 2 m/s 766 mmHg 56%
12:00 +17°C° 0 mm 2 m/s 765 mmHg 51%
13:00 +16°C° 0 mm 2 m/s 765 mmHg 52%
14:00 +16°C° 0 mm 3 m/s 765 mmHg 53%
15:00 +14°C° 0 mm 3 m/s 764 mmHg 54%
16:00 +14°C° 0 mm 3 m/s 764 mmHg 56%
17:00 +13°C° 0 mm 4 m/s 764 mmHg 58%
18:00 +12°C° 0 mm 4 m/s 764 mmHg 60%
19:00 +11°C° 0 mm 3 m/s 765 mmHg 62%
20:00 +11°C° 0 mm 3 m/s 765 mmHg 64%
21:00 +10°C° 0 mm 2 m/s 765 mmHg 66%
22:00 +10°C° 0 mm 2 m/s 765 mmHg 66%
23:00 +9°C° 0 mm 2 m/s 765 mmHg 67%

10 Mars, Mercredi

Heure Température Précipitation Vent Pression Humidité
00:00 +9°C° 0 mm 2 m/s 765 mmHg 68%
01:00 +9°C° 0 mm 2 m/s 765 mmHg 69%
02:00 +9°C° 0 mm 2 m/s 765 mmHg 70%
03:00 +9°C° 0 mm 2 m/s 765 mmHg 72%
04:00 +8°C° 0 mm 2 m/s 765 mmHg 74%
05:00 +9°C° 0 mm 1 m/s 766 mmHg 76%
06:00 +9°C° 0 mm 1 m/s 766 mmHg 78%
07:00 +10°C° 0 mm 2 m/s 767 mmHg 71%
08:00 +11°C° 0 mm 3 m/s 767 mmHg 64%
09:00 +13°C° 0 mm 3 m/s 767 mmHg 58%
10:00 +14°C° 0 mm 4 m/s 767 mmHg 56%
11:00 +15°C° 0 mm 4 m/s 768 mmHg 54%
12:00 +17°C° 0 mm 4 m/s 768 mmHg 52%
13:00 +16°C° 0 mm 5 m/s 767 mmHg 51%
14:00 +16°C° 0 mm 5 m/s 767 mmHg 50%
15:00 +15°C° 0 mm 5 m/s 767 mmHg 50%
16:00 +14°C° 0 mm 5 m/s 767 mmHg 55%
17:00 +13°C° 0 mm 5 m/s 767 mmHg 60%
18:00 +12°C° 0 mm 5 m/s 767 mmHg 65%
19:00 +11°C° 0 mm 4 m/s 767 mmHg 68%
20:00 +10°C° 0 mm 3 m/s 768 mmHg 72%
21:00 +10°C° 0 mm 2 m/s 768 mmHg 75%
22:00 +9°C° 0 mm 2 m/s 768 mmHg 76%
23:00 +9°C° 0 mm 2 m/s 768 mmHg 76%

11 Mars, Jeudi

Heure Température Précipitation Vent Pression Humidité
00:00 +9°C° 0 mm 2 m/s 768 mmHg 77%
01:00 +9°C° 0 mm 2 m/s 768 mmHg 78%
02:00 +9°C° 0 mm 2 m/s 768 mmHg 79%
03:00 +9°C° 0 mm 3 m/s 767 mmHg 81%
04:00 +9°C° 0 mm 2 m/s 767 mmHg 80%
05:00 +9°C° 0 mm 2 m/s 767 mmHg 80%
06:00 +8°C° 0 mm 2 m/s 767 mmHg 79%
07:00 +9°C° 0 mm 2 m/s 768 mmHg 74%
08:00 +10°C° 0 mm 3 m/s 768 mmHg 68%
09:00 +11°C° 0 mm 3 m/s 768 mmHg 63%
10:00 +13°C° 0 mm 2 m/s 768 mmHg 59%
11:00 +14°C° 0 mm 2 m/s 768 mmHg 56%
12:00 +15°C° 0 mm 2 m/s 768 mmHg 52%
13:00 +16°C° 0 mm 1 m/s 767 mmHg 51%
14:00 +16°C° 0 mm 1 m/s 767 mmHg 51%
15:00 +16°C° 0 mm 1 m/s 766 mmHg 50%
16:00 +15°C° 0 mm 1 m/s 766 mmHg 55%
17:00 +15°C° 0 mm 1 m/s 766 mmHg 60%
18:00 +13°C° 0 mm 0 m/s 766 mmHg 64%
19:00 +13°C° 0 mm 1 m/s 767 mmHg 66%
20:00 +13°C° 0 mm 1 m/s 767 mmHg 67%
21:00 +13°C° 0 mm 1 m/s 767 mmHg 68%
22:00 +13°C° 0 mm 1 m/s 767 mmHg 68%
23:00 +13°C° 0 mm 1 m/s 767 mmHg 68%
Voir plus

Nous avons besoin de votre consentement

Meteoprog et ses fournisseurs de services peuvent stocker et accéder à des données personnelles telles que des cookies, des identifiants d'appareils ou d'autres technologies similaires sur votre appareil et traiter ces données pour personnaliser le contenu et les publicités, ainsi que pour fournir des fonctionnalités de médias sociaux et analyser le trafic.

  • Stocker et/ou accéder à des informations sur votre appareil

    Des cookies, des identifiants d'appareils ou d'autres informations peuvent être stockés ou accessibles sur votre appareil aux fins indiquées ci-dessus.

  • Annonces et contenus personnalisés, mesure des annonces et des contenus, connaissance de l'audience et développement de produits

    Les annonces et le contenu peuvent être personnalisés en fonction d'un profil. D'autres données peuvent être ajoutées pour mieux personnaliser les annonces et le contenu. Les performances des publicités et du contenu peuvent être mesurées. Il est possible d'obtenir des informations sur le public qui a vu les publicités et le contenu. Ces données peuvent être utilisées pour développer ou améliorer l'expérience de l'utilisateur, les systèmes et les logiciels.

En cliquant sur "J'accepte", vous autorisez l'utilisation de cookies, des identifiants d'appareils, des balises web ou d'autres technologies similaires. Vos paramètres peuvent être modifiés dans le navigateur de votre appareil.

Dans certains cas, des intérêts légitimes peuvent être invoqués plutôt qu'un consentement. Vous pouvez en savoir plus à ce sujet dans notre Politique de confidentialité et de cookies.